Kenova, WV

10:40 PM EST on January 20, 2017 (GMT -0500)
Huntington

Weather History for KHTS - December, 2011

Change the Weather History Date:

Friday, December 23, 2011

  Actual Average Record
Temperature  
Mean Temperature 41 °F 35 °F  
Max Temperature 45 °F 44 °F 69 °F (1933)
Min Temperature 37 °F 27 °F -13 °F (1989)
Degree Days  
Heating Degree Days 24 30  
Month to date heating degree days 514 626  
Since 1 July heating degree days 1329 1513  
Cooling Degree Days 0 0  
Month to date cooling degree days 0 0  
Year to date cooling degree days 1242 1134  
Moisture  
Dew Point 37 °F    
Average Humidity 85    
Maximum Humidity 93    
Minimum Humidity 76    
Precipitation  
Precipitation T in 0.11 in 1.39 in (1990)
Month to date precipitation 2.17 2.49  
Year to date precipitation 61.30 41.77  
Snow  
Snow 0.00 in - - ()
Month to date snowfall 0.0  
Since 1 September snowfall 0.0  
Snow Depth 0.00 in    
Sea Level Pressure  
Sea Level Pressure 30.22 in    
Wind  
Wind Speed 4 mph (NW)    
Max Wind Speed 12 mph    
Max Gust Speed 16 mph    
Visibility 10 miles    
Events Rain    
T = Trace of Precipitation, MM = Missing Value Source: NWS Daily Summary

Daily Weather History Graph

Daily Weather History Graph

Search for Another Location

Airport or City:

Trip Planner

Search our weather history database for the weather conditions in past years. The results will help you decide how hot, cold, wet, or windy it might be!

Date:

Astronomy

Dec. 23, 2011 Rise Set
Actual Time 7:44 AM EST 5:14 PM EST
Civil Twilight 7:14 AM EST 5:43 PM EST
Nautical Twilight 6:41 AM EST 6:17 PM EST
Astronomical Twilight 6:09 AM EST 6:49 PM EST
Moon 6:32 AM EST (12/23) 4:21 PM EST (12/23)
Length of Visible Light 10h 28m
Length of Day
9h 29m
Waning Crescent, 1% of the Moon is Illuminated
Dec 23
Waning Crescent
Dec 24
New
Jan 1
First Quarter
Jan 9
Full
Jan 16
Last Quarter

Hourly Weather History & Observations

Time (EST) Temp. Windchill Dew Point Humidity Pressure Visibility Wind Dir Wind Speed Gust Speed Precip Events Conditions
12:51 AM 44.1 °F 40.1 °F 42.1 °F 93% 30.05 in 10.0 mi NNW 6.9 mph - N/A   Overcast
1:20 AM 44.6 °F 41.4 °F 41.0 °F 87% 30.06 in 10.0 mi NNW 5.8 mph - N/A   Overcast
1:51 AM 44.1 °F 39.0 °F 41.0 °F 89% 30.08 in 10.0 mi NNW 9.2 mph - N/A   Overcast
2:43 AM 42.8 °F 38.6 °F 39.2 °F 87% 30.11 in 10.0 mi NNW 6.9 mph - N/A   Overcast
2:51 AM 42.1 °F 38.4 °F 39.0 °F 89% 30.12 in 10.0 mi NNW 5.8 mph - N/A   Overcast
3:38 AM 42.8 °F 41.1 °F 39.2 °F 87% 30.13 in 10.0 mi NNW 3.5 mph - N/A   Overcast
3:51 AM 41.0 °F 36.4 °F 39.0 °F 93% 30.14 in 10.0 mi NNW 6.9 mph - N/A   Overcast
4:23 AM 41.0 °F 37.1 °F 37.4 °F 87% 30.14 in 10.0 mi NW 5.8 mph - N/A   Overcast
4:46 AM 39.2 °F 35.9 °F 37.4 °F 93% 30.15 in 10.0 mi NW 4.6 mph - N/A   Overcast
4:51 AM 39.9 °F 36.7 °F 37.0 °F 89% 30.16 in 10.0 mi NW 4.6 mph - N/A   Overcast
4:59 AM 39.2 °F 35.9 °F 37.4 °F 93% 30.15 in 10.0 mi WNW 4.6 mph - N/A   Overcast
5:51 AM 39.9 °F - 37.0 °F 89% 30.18 in 10.0 mi Calm Calm - N/A   Overcast
6:51 AM 39.9 °F 35.8 °F 37.0 °F 89% 30.22 in 10.0 mi WNW 5.8 mph - N/A   Overcast
7:51 AM 39.9 °F 37.8 °F 35.1 °F 83% 30.22 in 10.0 mi WNW 3.5 mph - N/A   Overcast
8:51 AM 41.0 °F - 36.0 °F 82% 30.24 in 10.0 mi Calm Calm - N/A   Overcast
9:51 AM 41.0 °F 39.0 °F 37.0 °F 86% 30.27 in 10.0 mi SSW 3.5 mph - N/A   Overcast
10:51 AM 42.1 °F 39.2 °F 36.0 °F 79% 30.28 in 10.0 mi WSW 4.6 mph - N/A   Overcast
11:51 AM 42.1 °F 39.2 °F 36.0 °F 79% 30.27 in 10.0 mi West 4.6 mph - N/A   Overcast
12:51 PM 43.0 °F 41.3 °F 35.1 °F 74% 30.25 in 10.0 mi West 3.5 mph - N/A   Overcast
1:51 PM 43.0 °F 39.5 °F 36.0 °F 76% 30.24 in 10.0 mi SW 5.8 mph - N/A   Overcast
2:51 PM 43.0 °F 41.3 °F 35.1 °F 74% 30.25 in 10.0 mi West 3.5 mph - N/A   Overcast
3:51 PM 42.1 °F 39.2 °F 35.1 °F 76% 30.26 in 10.0 mi West 4.6 mph - N/A   Overcast
4:16 PM 39.2 °F 33.6 °F 37.4 °F 93% 30.26 in 4.0 mi NNW 8.1 mph - 0.00 in Rain Light Rain
4:51 PM 39.0 °F 36.8 °F 37.0 °F 93% 30.27 in 7.0 mi WNW 3.5 mph - 0.00 in Rain Light Rain
5:33 PM 39.2 °F - 37.4 °F 93% 30.26 in 10.0 mi Calm Calm - 0.00 in   Overcast
5:46 PM 39.2 °F - 37.4 °F 93% 30.26 in 9.0 mi Calm Calm - 0.00 in   Overcast
5:51 PM 39.0 °F 36.8 °F 37.0 °F 93% 30.27 in 9.0 mi North 3.5 mph - 0.00 in   Overcast
6:05 PM 39.2 °F 37.0 °F 37.4 °F 93% 30.26 in 10.0 mi NNW 3.5 mph - N/A   Overcast
6:24 PM 39.2 °F - 37.4 °F 93% 30.26 in 10.0 mi Calm Calm - N/A   Overcast
6:51 PM 39.0 °F 35.7 °F 37.0 °F 93% 30.29 in 10.0 mi North 4.6 mph - N/A   Overcast
7:51 PM 37.4 °F - 35.6 °F 93% 30.28 in 7.0 mi Calm Calm - N/A   Overcast
8:37 PM 37.4 °F - 35.6 °F 93% 30.29 in 10.0 mi Calm Calm - N/A   Overcast
8:51 PM 37.9 °F 35.5 °F 35.1 °F 89% 30.30 in 7.0 mi NNW 3.5 mph - 0.00 in Rain Light Rain
9:42 PM 37.4 °F - 35.6 °F 93% 30.30 in 10.0 mi Calm Calm - 0.00 in Rain Light Rain
9:51 PM 37.9 °F 35.5 °F 35.1 °F 89% 30.31 in 10.0 mi NNW 3.5 mph - 0.00 in   Overcast
10:08 PM 37.4 °F 34.9 °F 35.6 °F 93% 30.30 in 10.0 mi Variable 3.5 mph - N/A   Overcast
10:51 PM 37.0 °F - 35.1 °F 93% 30.32 in 10.0 mi Calm Calm - N/A   Overcast
11:51 PM 37.9 °F - 35.1 °F 89% 30.33 in 10.0 mi Calm Calm - N/A   Overcast